Previsão horária em Alimkent

Hoje, 15 Junho, Terça-feira

Tempo Temperatura Precipitação Vento Pressão Humidade
00:00 +23°C° 0 mm 1 m/s 724 mmHg 17%
01:00 +21°C° 0 mm 2 m/s 724 mmHg 17%
02:00 +21°C° 0 mm 2 m/s 724 mmHg 17%
03:00 +20°C° 0 mm 2 m/s 724 mmHg 19%
04:00 +19°C° 0 mm 3 m/s 725 mmHg 20%
05:00 +19°C° 0 mm 3 m/s 725 mmHg 21%
06:00 +20°C° 0 mm 3 m/s 725 mmHg 21%
07:00 +22°C° 0 mm 4 m/s 726 mmHg 20%
08:00 +25°C° 0 mm 4 m/s 726 mmHg 20%
09:00 +27°C° 0 mm 4 m/s 726 mmHg 18%
10:00 +30°C° 0 mm 3 m/s 726 mmHg 17%
11:00 +33°C° 0 mm 3 m/s 726 mmHg 15%
12:00 +34°C° 0 mm 3 m/s 726 mmHg 14%
13:00 +35°C° 0 mm 3 m/s 725 mmHg 12%
14:00 +36°C° 0 mm 2 m/s 725 mmHg 10%
15:00 +36°C° 0 mm 2 m/s 725 mmHg 10%
16:00 +36°C° 0 mm 2 m/s 725 mmHg 10%
17:00 +36°C° 0 mm 2 m/s 724 mmHg 10%
18:00 +34°C° 0 mm 2 m/s 724 mmHg 12%
19:00 +31°C° 0 mm 2 m/s 724 mmHg 14%
20:00 +28°C° 0 mm 2 m/s 724 mmHg 16%
21:00 +27°C° 0 mm 2 m/s 724 mmHg 17%
22:00 +26°C° 0 mm 2 m/s 724 mmHg 18%
23:00 +24°C° 0 mm 2 m/s 724 mmHg 19%

Amanhã, 16 Junho, Quarta-feira

Tempo Temperatura Precipitação Vento Pressão Humidade
00:00 +24°C° 0 mm 2 m/s 724 mmHg 20%
01:00 +23°C° 0 mm 2 m/s 723 mmHg 21%
02:00 +23°C° 0 mm 2 m/s 723 mmHg 22%
03:00 +21°C° 0 mm 2 m/s 724 mmHg 23%
04:00 +20°C° 0 mm 2 m/s 724 mmHg 24%
05:00 +20°C° 0 mm 3 m/s 724 mmHg 24%
06:00 +22°C° 0 mm 3 m/s 725 mmHg 23%
07:00 +25°C° 0 mm 3 m/s 725 mmHg 22%
08:00 +27°C° 0 mm 3 m/s 726 mmHg 22%
09:00 +29°C° 0 mm 3 m/s 726 mmHg 20%
10:00 +31°C° 0 mm 3 m/s 726 mmHg 17%
11:00 +34°C° 0 mm 4 m/s 726 mmHg 15%
12:00 +35°C° 0 mm 3 m/s 725 mmHg 14%
13:00 +36°C° 0 mm 3 m/s 725 mmHg 12%
14:00 +37°C° 0 mm 3 m/s 725 mmHg 11%
15:00 +38°C° 0 mm 2 m/s 725 mmHg 10%
16:00 +38°C° 0 mm 2 m/s 725 mmHg 10%
17:00 +38°C° 0 mm 2 m/s 724 mmHg 9%
18:00 +35°C° 0 mm 2 m/s 724 mmHg 11%
19:00 +32°C° 0 mm 2 m/s 724 mmHg 13%
20:00 +30°C° 0 mm 2 m/s 724 mmHg 14%
21:00 +29°C° 0 mm 2 m/s 724 mmHg 15%
22:00 +27°C° 0 mm 2 m/s 724 mmHg 16%
23:00 +26°C° 0 mm 2 m/s 724 mmHg 17%

Depois de amanhã, 17 Junho, Quinta-feira

Tempo Temperatura Precipitação Vento Pressão Humidade
00:00 +26°C° 0 mm 2 m/s 724 mmHg 18%
01:00 +25°C° 0 mm 2 m/s 724 mmHg 19%
02:00 +25°C° 0 mm 2 m/s 724 mmHg 20%
03:00 +24°C° 0 mm 2 m/s 724 mmHg 21%
04:00 +24°C° 0 mm 1 m/s 724 mmHg 22%
05:00 +23°C° 0 mm 1 m/s 725 mmHg 23%
06:00 +25°C° 0 mm 2 m/s 725 mmHg 21%
07:00 +27°C° 0 mm 2 m/s 725 mmHg 19%
08:00 +29°C° 0 mm 3 m/s 726 mmHg 18%
09:00 +31°C° 0 mm 3 m/s 726 mmHg 17%
10:00 +34°C° 0 mm 3 m/s 726 mmHg 16%
11:00 +36°C° 0 mm 3 m/s 726 mmHg 15%
12:00 +37°C° 0 mm 3 m/s 725 mmHg 13%
13:00 +38°C° 0 mm 3 m/s 725 mmHg 11%
14:00 +39°C° 0 mm 3 m/s 725 mmHg 10%
15:00 +39°C° 0 mm 3 m/s 725 mmHg 9%
16:00 +39°C° 0 mm 3 m/s 724 mmHg 9%
17:00 +39°C° 0 mm 3 m/s 724 mmHg 9%
18:00 +36°C° 0 mm 3 m/s 724 mmHg 11%
19:00 +33°C° 0 mm 3 m/s 724 mmHg 13%
20:00 +30°C° 0 mm 3 m/s 724 mmHg 16%
21:00 +29°C° 0 mm 2 m/s 724 mmHg 16%
22:00 +28°C° 0 mm 2 m/s 724 mmHg 17%
23:00 +27°C° 0 mm 2 m/s 724 mmHg 17%

18 Junho, Sexta-feira

Tempo Temperatura Precipitação Vento Pressão Humidade
00:00 +26°C° 0 mm 2 m/s 724 mmHg 18%
01:00 +26°C° 0 mm 2 m/s 724 mmHg 19%
02:00 +25°C° 0 mm 2 m/s 724 mmHg 20%
03:00 +24°C° 0 mm 2 m/s 724 mmHg 22%
04:00 +24°C° 0 mm 2 m/s 724 mmHg 24%
05:00 +23°C° 0 mm 2 m/s 724 mmHg 26%
06:00 +26°C° 0 mm 2 m/s 724 mmHg 24%
07:00 +29°C° 0 mm 2 m/s 725 mmHg 22%
08:00 +31°C° 0 mm 2 m/s 725 mmHg 20%
09:00 +34°C° 0 mm 3 m/s 725 mmHg 17%
10:00 +36°C° 0 mm 3 m/s 725 mmHg 15%
11:00 +38°C° 0 mm 4 m/s 725 mmHg 13%
12:00 +40°C° 0 mm 4 m/s 725 mmHg 11%
13:00 +40°C° 0 mm 4 m/s 724 mmHg 9%
14:00 +41°C° 0 mm 4 m/s 724 mmHg 8%
15:00 +41°C° 0 mm 4 m/s 724 mmHg 7%
16:00 +41°C° 0 mm 4 m/s 724 mmHg 7%
17:00 +41°C° 0 mm 4 m/s 724 mmHg 7%
18:00 +37°C° 0 mm 3 m/s 724 mmHg 9%
19:00 +35°C° 0 mm 3 m/s 724 mmHg 12%
20:00 +31°C° 0 mm 3 m/s 724 mmHg 14%
21:00 +30°C° 0 mm 3 m/s 724 mmHg 15%
22:00 +29°C° 0 mm 3 m/s 724 mmHg 15%
23:00 +28°C° 0 mm 2 m/s 725 mmHg 16%

19 Junho, Sábado

Tempo Temperatura Precipitação Vento Pressão Humidade
00:00 +27°C° 0 mm 2 m/s 725 mmHg 16%
01:00 +27°C° 0 mm 2 m/s 725 mmHg 17%
02:00 +26°C° 0 mm 2 m/s 725 mmHg 17%
03:00 +25°C° 0 mm 2 m/s 725 mmHg 18%
04:00 +25°C° 0 mm 2 m/s 725 mmHg 19%
05:00 +24°C° 0 mm 2 m/s 725 mmHg 20%
06:00 +26°C° 0 mm 1 m/s 726 mmHg 19%
07:00 +28°C° 0 mm 1 m/s 726 mmHg 18%
08:00 +30°C° 0 mm 1 m/s 727 mmHg 16%
09:00 +32°C° 0 mm 1 m/s 727 mmHg 15%
10:00 +36°C° 0 mm 2 m/s 727 mmHg 14%
11:00 +38°C° 0 mm 3 m/s 727 mmHg 12%
12:00 +38°C° 0 mm 4 m/s 726 mmHg 12%
13:00 +40°C° 0 mm 6 m/s 726 mmHg 13%
14:00 +40°C° 0 mm 7 m/s 725 mmHg 13%
15:00 +38°C° 0 mm 9 m/s 725 mmHg 19%
16:00 +36°C° 0 mm 11 m/s 725 mmHg 24%
17:00 +33°C° 0 mm 13 m/s 725 mmHg 30%
18:00 +31°C° 0.1 mm 10 m/s 725 mmHg 38%
19:00 +27°C° 0.1 mm 7 m/s 726 mmHg 46%
20:00 +25°C° 0.1 mm 3 m/s 726 mmHg 53%
21:00 +24°C° 0 mm 3 m/s 727 mmHg 55%
22:00 +22°C° 0 mm 3 m/s 728 mmHg 56%
23:00 +21°C° 0 mm 2 m/s 728 mmHg 58%

20 Junho, Domingo

Tempo Temperatura Precipitação Vento Pressão Humidade
00:00 +21°C° 0 mm 2 m/s 728 mmHg 50%
01:00 +20°C° 0 mm 3 m/s 728 mmHg 42%
02:00 +20°C° 0 mm 3 m/s 728 mmHg 33%
03:00 +19°C° 0 mm 3 m/s 728 mmHg 34%
04:00 +18°C° 0 mm 2 m/s 728 mmHg 35%
05:00 +17°C° 0 mm 2 m/s 729 mmHg 36%
06:00 +18°C° 0 mm 3 m/s 729 mmHg 34%
07:00 +20°C° 0 mm 3 m/s 730 mmHg 32%
08:00 +21°C° 0 mm 4 m/s 731 mmHg 29%
09:00 +22°C° 0 mm 4 m/s 731 mmHg 26%
10:00 +23°C° 0 mm 4 m/s 731 mmHg 23%
11:00 +26°C° 0 mm 4 m/s 732 mmHg 20%
12:00 +27°C° 0 mm 4 m/s 731 mmHg 18%
13:00 +28°C° 0 mm 4 m/s 731 mmHg 15%
14:00 +29°C° 0 mm 5 m/s 731 mmHg 13%
15:00 +29°C° 0 mm 5 m/s 731 mmHg 12%
16:00 +29°C° 0 mm 5 m/s 731 mmHg 12%
17:00 +29°C° 0 mm 5 m/s 731 mmHg 12%
18:00 +27°C° 0 mm 4 m/s 732 mmHg 14%
19:00 +24°C° 0 mm 3 m/s 732 mmHg 17%
20:00 +21°C° 0 mm 3 m/s 732 mmHg 19%
21:00 +20°C° 0 mm 2 m/s 732 mmHg 20%
22:00 +20°C° 0 mm 2 m/s 732 mmHg 21%
23:00 +19°C° 0 mm 2 m/s 732 mmHg 22%
Mostrar mais